[[{"header":{"parameterUnit":"m.s-1","parameterCategory":1,"la1":30.2991,"la2":30.254,"lo1":-89.0895,"lo2":-89.0444,"dy":0.0017,"dx":0.0017,"nx":28,"ny":28,"refTime":"2025-03-14T09:00:00:Z","depth":0,"parameterNumber":2,"parameterNumberName":"U-component_of_WINDS"},"data":[0,0,0,0,0,0,0,0,0,0,0,0,0,0,0,0,0,0,0,0,0,0,0,0,0,0,0,0,0,0,0,0,0,0,0,0,0,0,0,0,0,0,0,0,0,0,0,0,0,0,0,0,0,0,0,0,0,0,-4.6236,-4.6237,0,-4.6357,-4.6359,-4.636,-4.6392,-4.6391,-4.6391,-4.639,-4.651,-4.6513,-4.6517,0,0,0,0,0,0,0,0,0,0,0,0,0,-4.6026,-4.603,-4.6235,-4.6237,-4.6239,-4.6357,-4.6359,-4.636,-4.6392,-4.6391,-4.639,-4.639,-4.6508,-4.6513,-4.6518,0,0,0,0,0,0,0,0,0,0,0,0,0,-4.6129,-4.6031,-4.6235,-4.6269,-4.6273,-4.6357,-4.6359,-4.6361,-4.6392,-4.6391,-4.639,-4.6389,-4.6507,-4.6513,-4.6518,-4.6576,0,0,-4.6536,-4.6538,0,0,0,0,0,0,0,0,-4.6124,-4.6137,-4.6262,-4.6267,-4.6272,-4.6359,-4.6329,-4.6433,-4.6393,-4.6347,-4.639,-4.6389,-4.646,-4.647,-4.6495,-4.6581,-4.6586,-4.6536,-4.654,-4.6542,-4.6544,0,0,0,0,0,0,0,-4.6116,-4.6132,-4.6284,-4.6264,-4.627,-4.6276,-4.629,-4.6349,-4.6408,-4.6351,-4.6354,-4.6368,-4.6462,-4.6489,-4.6498,-4.6588,-4.6536,-4.6541,-4.6545,-4.6547,-4.6728,-4.6729,0,0,0,0,0,0,-4.6104,-4.6126,-4.628,-4.6287,-4.6194,-4.6281,-4.6296,-4.6332,-4.6407,-4.6418,-4.6369,-4.6369,-4.648,-4.6491,-4.6502,-4.6574,-4.6542,-4.6548,-4.6551,-4.6726,-4.6728,-4.6729,0,0,0,0,0,0,-4.6099,-4.6117,-4.6275,-4.6207,-4.6228,-4.6286,-4.6325,-4.6335,-4.6361,-4.6421,-4.6431,-4.6385,-4.6479,-4.6494,-4.6557,-4.6578,-4.655,-4.6556,-4.6725,-4.6727,-4.6729,-4.6717,0,0,0,0,0,0,-4.6093,-4.6116,-4.6139,-4.6208,-4.6231,-4.6329,-4.6327,-4.6338,-4.6372,-4.6373,-4.6439,-4.6449,-4.6479,-4.6549,-4.6563,-4.6586,-4.656,-4.6723,-4.6726,-4.6728,-4.6716,-4.6719,-4.6721,0,0,0,0,0,-4.6086,-4.613,-4.614,-4.6158,-4.6262,-4.633,-4.6344,-4.6379,-4.6373,-4.6397,-4.6435,-4.6447,-4.6574,-4.6555,-4.6572,-4.6596,-4.6722,-4.6725,-4.6728,-4.6715,-4.6718,-4.6721,0,0,0,0,0,0,-4.606,-4.6139,-4.6151,-4.622,-4.6268,-4.6336,-4.6366,-4.6382,-4.6432,-4.6431,-4.6472,-4.6486,-4.6547,-4.6578,-4.6555,-4.6655,-4.6648,-4.6654,-4.6632,-4.6636,-4.6638,-4.6628,-4.6565,0,0,0,0,0,-4.6063,-4.6113,-4.6179,-4.6233,-4.6257,-4.6307,-4.6338,-4.6362,-4.6413,-4.6434,-4.6476,-4.6524,-4.6575,-4.6608,-4.6658,-4.6722,-4.6735,-4.6747,-4.6749,-4.6751,-4.6755,-4.679,-4.6796,-4.6739,-4.6739,-4.6739,0,0,-4.6068,-4.6118,-4.6146,-4.6229,-4.627,-4.6319,-4.6324,-4.6377,-4.6414,-4.6441,-4.6504,-4.6537,-4.6593,-4.6657,-4.6687,-4.6685,-4.6774,-4.6755,-4.6755,-4.6759,-4.6794,-4.6799,-4.6804,-4.6741,-4.6741,-4.674,0,0,-4.6102,-4.6146,-4.6195,-4.6236,-4.6298,-4.6331,-4.6343,-4.6409,-4.6433,-4.6497,-4.6518,-4.6562,-4.6649,-4.6688,-4.6719,-4.677,-4.6783,-4.6786,-4.6797,-4.6831,-4.6835,-4.6839,-4.6856,-4.6862,-4.679,-4.679,-4.679,0,-4.61,-4.6178,-4.6218,-4.627,-4.6305,-4.6334,-4.6383,-4.6421,-4.6495,-4.6518,-4.6515,-4.6625,-4.6665,-4.6738,-4.675,-4.6775,-4.6789,-4.6777,-4.6832,-4.6836,-4.6841,-4.6857,-4.6863,-4.679,-4.679,-4.679,-4.679,0,-4.6172,-4.6225,-4.6257,-4.633,-4.6369,-4.6419,-4.6465,-4.65,-4.652,-4.6554,-4.6618,-4.6668,-4.6728,-4.6748,-4.6767,-4.6823,-4.682,-4.6824,-4.6817,-4.6845,-4.6861,-4.6868,-4.679,-4.679,-4.679,-4.679,0,0,-4.6191,-4.6287,-4.6298,-4.6331,-4.6402,-4.6444,-4.6495,-4.6556,-4.6584,-4.6635,-4.6678,-4.6751,-4.6756,-4.6791,-4.6816,-4.6846,-4.6882,-4.6846,-4.6848,-4.685,-4.6945,-4.694,-4.6947,-4.6891,-4.6893,-4.6894,-4.694,0,-4.6233,-4.6328,-4.6366,-4.6441,-4.649,-4.652,-4.6564,-4.6612,-4.6645,-4.669,-4.6726,-4.6777,-4.678,-4.6801,-4.6833,-4.6871,-4.6901,-4.6868,-4.693,-4.6931,-4.6913,-4.6955,-4.695,-4.6991,-4.6946,-4.6947,-4.6948,0,-4.6295,-4.6348,-4.6429,-4.6494,-4.6516,-4.6556,-4.6614,-4.6658,-4.6713,-4.6734,-4.6775,-4.6798,-4.6852,-4.6843,-4.6916,-4.6893,-4.6921,-4.6943,-4.6946,-4.6951,-4.694,-4.696,-4.7005,-4.701,-4.6959,-4.6958,-4.6957,0,-4.6299,-4.6391,-4.6451,-4.6479,-4.6557,-4.6584,-4.6617,-4.6671,-4.6705,-4.6756,-4.6779,-4.6835,-4.6865,-4.6907,-4.6945,-4.6935,-4.7014,-4.7009,-4.7032,-4.7031,-4.7046,-4.7044,-4.7094,-4.7067,-4.7067,-4.7066,-4.7066,0,-4.6341,-4.6389,-4.6454,-4.6491,-4.6545,-4.6588,-4.664,-4.6676,-4.6723,-4.6766,-4.6795,-4.6835,-4.6883,-4.6928,-4.6958,-4.7013,-4.7027,-4.7045,-4.7052,-4.7041,-4.7039,-4.7058,-4.7056,-4.7068,-4.7068,-4.7067,-4.7067,0,-4.6354,-4.64,-4.6467,-4.6537,-4.6555,-4.6592,-4.665,-4.6686,-4.6722,-4.6776,-4.6791,-4.6845,-4.69,-4.6942,-4.7013,-4.7033,-4.7092,-4.71,-4.7073,-4.7077,-4.7097,-4.7094,-4.716,-4.717,-4.7137,-4.7138,-4.7138,0,-4.6377,-4.6415,-4.6489,-4.6521,-4.6554,-4.6605,-4.6641,-4.6685,-4.672,-4.6786,-4.6813,-4.6871,-4.6919,-4.7005,-4.705,-4.7104,-4.7113,-4.7133,-4.7121,-4.7109,-4.7111,-4.7108,-4.7111,-4.7133,-4.7133,-4.7133,-4.7134,0,-4.6412,-4.6433,-4.6484,-4.6543,-4.6586,-4.6634,-4.6682,-4.6706,-4.6759,-4.6797,-4.6855,-4.6892,-4.6966,-4.7022,-4.7081,-4.7114,-4.7132,-4.7137,-4.7145,-4.7134,-4.7116,-4.7125,-4.7076,-4.7135,-4.7135,-4.7135,-4.7135,-4.7134,-4.643,-4.6465,-4.6523,-4.6578,-4.662,-4.6665,-4.6702,-4.6743,-4.6792,-4.6856,-4.6879,-4.6938,-4.6991,-4.7073,-4.7107,-4.7153,-4.7153,-4.7165,-4.7168,-4.7169,-4.7168,-4.7111,-4.7164,-4.7164,-4.7164,-4.7164,-4.7164,0,-4.6466,-4.6505,-4.6556,-4.6623,-4.6667,-4.6683,-4.6738,-4.6772,-4.6824,-4.6874,-4.6921,-4.6987,-4.7042,-4.7092,-4.7148,-4.7175,-4.7185,-4.7188,-4.7186,-4.7193,-4.7165,-4.7151,-4.718,-4.718,-4.718,-4.718,-4.718,-4.718,-4.6489,-4.6549,-4.6577,-4.6657,-4.6695,-4.6754,-4.6784,-4.6825,-4.6865,-4.6937,-4.6984,-4.7017,-4.7066,-4.7127,-4.7177,-4.7191,-4.7209,-4.721,-4.7225,-4.7197,-4.7195,-4.7193,-4.7181,-4.7215,-4.7215,-4.725,-4.725,-4.725]},{"header":{"parameterUnit":"m.s-1","parameterCategory":1,"la1":30.2991,"la2":30.254,"lo1":-89.0895,"lo2":-89.0444,"dy":0.0017,"dx":0.0017,"nx":28,"ny":28,"refTime":"2025-03-14T09:00:00:Z","depth":0,"parameterNumber":3,"parameterNumberName":"V-component_of_WINDS"},"data":[0,0,0,0,0,0,0,0,0,0,0,0,0,0,0,0,0,0,0,0,0,0,0,0,0,0,0,0,0,0,0,0,0,0,0,0,0,0,0,0,0,0,0,0,0,0,0,0,0,0,0,0,0,0,0,0,0,0,6.6053,6.6053,0,6.6118,6.6118,6.6119,6.6094,6.6092,6.6091,6.6089,6.6153,6.6156,6.6159,0,0,0,0,0,0,0,0,0,0,0,0,0,6.5906,6.5909,6.6053,6.6053,6.6054,6.6117,6.6118,6.6119,6.6094,6.6092,6.609,6.6088,6.6152,6.6156,6.6159,0,0,0,0,0,0,0,0,0,0,0,0,0,6.597,6.591,6.6052,6.6049,6.605,6.6117,6.6118,6.6119,6.6094,6.6092,6.609,6.6088,6.6151,6.6155,6.616,6.6234,0,0,6.6174,6.6176,0,0,0,0,0,0,0,0,6.5967,6.5976,6.6049,6.605,6.605,6.6095,6.609,6.6158,6.6095,6.6077,6.6089,6.6086,6.6135,6.6141,6.6158,6.6237,6.624,6.6175,6.6177,6.6179,6.6181,0,0,0,0,0,0,0,6.5962,6.5973,6.6078,6.605,6.6051,6.6045,6.6051,6.6103,6.6118,6.6079,6.6077,6.6085,6.6135,6.6154,6.616,6.6241,6.6174,6.6179,6.6181,6.6183,6.6387,6.639,0,0,0,0,0,0,6.5958,6.5969,6.6076,6.608,6.6002,6.6049,6.6056,6.6083,6.6117,6.6121,6.6087,6.6084,6.6147,6.6154,6.6162,6.6253,6.6179,6.6184,6.6186,6.6384,6.6388,6.639,0,0,0,0,0,0,6.5955,6.5968,6.6074,6.6024,6.6037,6.6054,6.6084,6.6085,6.6104,6.6124,6.6126,6.6103,6.6146,6.6155,6.6217,6.6255,6.6186,6.619,6.6381,6.6385,6.6389,6.6436,0,0,0,0,0,0,6.5951,6.5967,6.5995,6.6025,6.604,6.6128,6.6086,6.6088,6.6112,6.6109,6.614,6.6143,6.6144,6.621,6.6222,6.626,6.6194,6.6378,6.6383,6.6388,6.6431,6.6441,6.6449,0,0,0,0,0,6.5946,6.6004,6.5996,6.6009,6.6076,6.613,6.6139,6.614,6.6115,6.6144,6.6158,6.6142,6.6249,6.6217,6.623,6.627,6.6376,6.6382,6.6387,6.6427,6.6439,6.6449,0,0,0,0,0,0,6.5975,6.6008,6.6,6.6069,6.6098,6.6126,6.6162,6.6152,6.6187,6.6182,6.6182,6.6189,6.6254,6.6268,6.6232,6.6345,6.6309,6.6317,6.6334,6.6346,6.6355,6.635,6.6198,0,0,0,0,0,6.5991,6.6033,6.6058,6.6117,6.6132,6.6145,6.6168,6.6168,6.6196,6.6208,6.6225,6.6253,6.6294,6.632,6.6358,6.6433,6.644,6.6467,6.6476,6.6483,6.6491,6.6535,6.6548,6.641,6.641,6.641,0,0,6.6021,6.6044,6.607,6.6124,6.6146,6.619,6.6155,6.6202,6.6235,6.6215,6.6275,6.629,6.6321,6.6391,6.6422,6.6404,6.6531,6.6491,6.6497,6.65,6.6542,6.6555,6.6567,6.6414,6.6413,6.6412,0,0,6.6101,6.6121,6.6175,6.6198,6.6232,6.6241,6.6254,6.6284,6.6294,6.6355,6.6342,6.6381,6.6449,6.6474,6.6495,6.6587,6.6575,6.6599,6.6647,6.669,6.6701,6.6711,6.6746,6.6759,6.6607,6.6607,6.6607,0,6.6134,6.6201,6.6203,6.6253,6.6278,6.6263,6.6318,6.634,6.6384,6.6402,6.6382,6.6471,6.649,6.6567,6.659,6.6607,6.6623,6.6596,6.6699,6.6709,6.6718,6.6752,6.6765,6.661,6.661,6.6609,6.6609,0,6.6242,6.6288,6.6327,6.6373,6.6402,6.6454,6.6465,6.6494,6.6492,6.6503,6.6567,6.6591,6.6635,6.6653,6.665,6.673,6.6719,6.6699,6.6662,6.6734,6.6766,6.6779,6.6614,6.6613,6.6612,6.6612,0,0,6.634,6.6389,6.6404,6.6426,6.6464,6.65,6.6552,6.6597,6.6623,6.6655,6.67,6.676,6.6744,6.6768,6.6767,6.6805,6.688,6.6781,6.6782,6.68,6.6974,6.699,6.7004,6.6872,6.6874,6.6876,6.6972,0,6.6424,6.6517,6.6522,6.6606,6.6651,6.6639,6.6685,6.6714,6.6727,6.6766,6.6779,6.6823,6.6796,6.6812,6.6848,6.6863,6.6915,6.6856,6.6915,6.6917,6.6909,6.7021,6.7037,6.7125,6.6984,6.6986,6.6987,0,6.6534,6.6572,6.6662,6.6697,6.6716,6.6757,6.6801,6.6838,6.6871,6.6878,6.6907,6.6903,6.6957,6.6919,6.6995,6.6955,6.6979,6.6991,6.6994,6.7001,6.6957,6.7032,6.7153,6.7168,6.7007,6.7005,6.7004,0,6.6601,6.6674,6.6738,6.6756,6.6798,6.6828,6.6847,6.6878,6.6906,6.6944,6.6962,6.7005,6.7029,6.7063,6.7071,6.7041,6.7148,6.7109,6.7156,6.7157,6.718,6.7179,6.7309,6.7193,6.7193,6.7192,6.7192,0,6.6695,6.675,6.6768,6.6808,6.6871,6.6876,6.6938,6.6955,6.6983,6.7027,6.7018,6.7059,6.7066,6.7109,6.7115,6.7179,6.7189,6.7197,6.7198,6.7199,6.7198,6.7215,6.721,6.7196,6.7195,6.7195,6.7194,0,6.6779,6.6793,6.6863,6.6898,6.6908,6.6953,6.6984,6.7022,6.7035,6.709,6.7103,6.7122,6.7172,6.7184,6.7242,6.7246,6.7323,6.7317,6.7313,6.7313,6.736,6.7357,6.7508,6.7529,6.7397,6.7398,6.7399,0,6.6839,6.6882,6.6923,6.6953,6.6974,6.702,6.7049,6.7057,6.7088,6.7131,6.7165,6.7214,6.7254,6.7335,6.7355,6.74,6.7397,6.7447,6.7403,6.7404,6.74,6.7399,6.7404,6.7455,6.7457,6.7458,6.7459,0,6.6945,6.6951,6.6994,6.7041,6.7077,6.7113,6.7148,6.7172,6.7185,6.722,6.7272,6.7304,6.7366,6.7416,6.7462,6.7481,6.7473,6.7472,6.7486,6.7488,6.7484,6.7489,6.7337,6.7469,6.7468,6.7467,6.7466,6.7466,6.7021,6.706,6.7096,6.7145,6.7173,6.7207,6.7246,6.7265,6.7308,6.736,6.7362,6.742,6.7454,6.7517,6.7539,6.7585,6.7569,6.7588,6.7594,6.7599,6.7605,6.7476,6.7593,6.7592,6.7592,6.7592,6.7592,0,6.7129,6.7152,6.7197,6.7248,6.7287,6.7277,6.7316,6.735,6.7401,6.7435,6.7475,6.7537,6.7586,6.7611,6.766,6.7692,6.769,6.7705,6.7703,6.7709,6.7614,6.7598,6.7706,6.7706,6.7706,6.7706,6.7706,6.7706,6.719,6.7257,6.7267,6.7348,6.7371,6.7429,6.7452,6.7484,6.7511,6.7581,6.7623,6.7639,6.767,6.7722,6.7767,6.7773,6.7793,6.781,6.7815,6.7726,6.7715,6.7704,6.7689,6.7814,6.7814,6.7906,6.7906,6.7907]}]]